Regional Weather Roundup
Issued by NWS

Home | Current Version | Previous Version | Graphics & Text | Print | Product List | Glossary On
Versions: 1 2 3 4 5 6 7 8 9 10 11 12 13 14 15 16 17 18 19 20 21 22 23 24 25 26 27 28 29 30 31 32 33 34 35 36 37 38 39 40 41 42 43 44 45 46 47 48 49 50
000
ASUS43 KMKX 141121
RWRWI

WISCONSIN REGIONAL WEATHER ROUNDUP
NATIONAL WEATHER SERVICE MILWAUKEE/SULLIVAN WI
600 AM CDT MON JUL 14 2014

NOTE: "FAIR" INDICATES FEW OR NO CLOUDS BELOW 12,000 FEET WITH NO
SIGNIFICANT WEATHER AND/OR OBSTRUCTIONS TO VISIBILITY.

WIZ001-002-006>008-014>016-023>028-141200-
NORTHWEST WISCONSIN

CITY           SKY/WX    TMP DP  RH WIND       PRES   REMARKS
SUPERIOR ARPT  LGT RAIN  53  51  94 W5        29.83S
ASHLAND        CLOUDY    54  49  83 SW7       29.82F
HAYWARD        CLOUDY    54  53  97 CALM      29.85S
SIREN          CLOUDY    56  51  84 SW3       29.86S
RICE LAKE      CLOUDY    55  51  85 CALM      29.88S
LADYSMITH      CLOUDY    57  51  81 W6        29.87S
EAU CLAIRE     CLOUDY    57  53  86 SW5       29.86S
MENOMONIE      CLOUDY    57  52  82 W6        29.88R
NEW RICHMOND   CLOUDY    55  53  90 W5        29.88S
OSCEOLA        CLOUDY    56  54  93 SW5       29.91R
$$

WIZ003>005-009-010-017-018-141200-
NORTH CENTRAL WISCONSIN

CITY           SKY/WX    TMP DP  RH WIND       PRES   REMARKS
WOODRUFF       CLOUDY    53  46  76 CALM      29.84S
RHINELANDER    MOCLDY    53  51  93 CALM      29.84S
EAGLE RIVER    CLOUDY    52  52 100 CALM      29.83S
LAND O LAKES   CLOUDY    50  50  99 CALM      29.84S
PHILLIPS       CLOUDY    53  50  89 CALM      29.84S
TOMAHAWK       FOG       49  48  95 CALM      29.84F VSB<1/4
MEDFORD        CLOUDY    53  51  94 CALM      29.85S
MERRILL        CLOUDY    54  52  95 CALM      29.84S
$$

WIZ029-030-035-036-043>047-141200-
CENTRAL WISCONSIN

CITY           SKY/WX    TMP DP  RH WIND       PRES   REMARKS
WAUSAU         CLOUDY    58  51  78 VRB3      29.83S
MOSINEE        CLOUDY    55  54  94 W6        29.85F
MARSHFIELD     CLOUDY    56  52  86 W7        29.84F
STEVENS POINT  MOCLDY    49  48  95 CALM      29.85S
WAUPACA        CLEAR     52  51  93 CALM      29.84F
WAUTOMA        PTCLDY    48  47  97 CALM      29.86S
WISC RAPIDS    PTCLDY    50  49  96 NW3       29.86S FOG
CAMP DOUGLAS   FOG       48  48 100 N1        29.85S VSB 3/4
$$

WIZ011>013-019>022-031-037>040-048>050-141200-
NORTHEAST WISCONSIN

CITY           SKY/WX    TMP DP  RH WIND       PRES   REMARKS
ANTIGO         CLOUDY    51  51  99 CALM      29.84F FOG
STURGEON BAY   CLEAR     55  52  88 NW5       29.83S
GREEN BAY      CLEAR     54  52  93 CALM      29.83F
MANITOWOC      CLEAR     60  51  72 W5        29.84F
APPLETON       PTCLDY    54  52  94 W7        29.84F
CLINTONVILLE   CLEAR     50  46  87 CALM      29.83F
OSHKOSH        CLEAR     58  52  80 SW5       29.84S
$$

WIZ032>034-041-042-053>061-141200-
SOUTHWEST WISCONSIN

CITY           SKY/WX    TMP DP  RH WIND       PRES   REMARKS
LA CROSSE      CLEAR     58  55  90 S5        29.87S
SPARTA         CLEAR     47  46  97 CALM      29.88S
VIROQUA        FAIR      54  54 100 W6        29.88S
BOSCOBEL       FOG       58  56  93 CALM      29.88S VSB 1/4
PRAIRIE DU CHI CLEAR     58  56  94 CALM      29.88S FOG
PLATTEVILLE    FAIR      60  57  89 N3        29.89S
$$

WIZ056-057-062-063-064-067-068-141200-
SOUTH CENTRAL WISCONSIN

CITY           SKY/WX    TMP DP  RH WIND       PRES   REMARKS
BARABOO/DELLS  CLEAR     53  50  89 CALM      29.87S
LONE ROCK      CLEAR     57  53  86 CALM      29.87F FOG
WATERTOWN      PTCLDY    55  54  97 CALM      29.86S
MADISON        MOCLDY    56  54  93 CALM      29.87S
MIDDLETON      PTSUNNY   58  56  93 NW3       29.87F
MONROE         CLOUDY    63  55  77 SW7       29.88S
JANESVILLE     MOCLDY    61  57  88 CALM      29.87S
$$

WIZ051-052-058>065-066-070>072-141200-
SOUTHEAST WISCONSIN

CITY           SKY/WX    TMP DP  RH WIND       PRES   REMARKS
MILWAUKEE      PTCLDY    63  57  81 CALM      29.86S
WAUKESHA       PTCLDY    54  52  94 CALM      29.87F
MILWAUKEE/TIMM CLEAR     59  52  77 CALM      29.87S
RACINE         CLEAR     60  56  86 W3        29.87F
BURLINGTON     PTCLDY    54  53  99 CALM      29.87R FOG
KENOSHA        CLEAR     58  57  97 SW3       29.86F
FOND DU LAC    CLEAR     57  52  83 SW6       29.85F
SHEBOYGAN      CLEAR     56  50  80 SW3       29.85F
WEST BEND      MOCLDY    52  50  93 CALM      29.86S
JUNEAU         PTCLDY    55  40  55 CALM      29.87F
$$

LSZ147-162-141200-
LAKE SUPERIOR

STATION/POSITION TIME  TEMP    WIND        PRES    WAVE
                       AIR SEA DIR/SP/G            HT/PER
                 (UTC) (F)     (DEG/KT/KT) (MB)    (FT/S)
W MID LAKE BUOY  1050   43 38  230/  6/  6 1009.4S   1
PORT WING        1040   55     310/ 12/ 15 1009.8S
SAXON HARBOR     1000          220/  3/  7 1010.2S
$$

LMZ867-665-643>646-141200-
LAKE MICHIGAN

STATION/POSITION TIME  TEMP    WIND        PRES    WAVE
                       AIR SEA DIR/SP/G            HT/PER
                 (UTC) (F)     (DEG/KT/KT) (MB)    (FT/S)
N MID LAKE BUOY  1050   60 59  240/  6/  6 1008.9R   1
NORTHPORT PIER   1000   60     230/  4/  6 1009.5S
SISTER BAY       1010   63     300/  7/  8   N/A
KEWAUNEE LAKESHO 1100   58     300/  4/  5 1010.8F
SHEBOYGAN LAKESH 1100   63     250/  7/  8 1010.5F
PORT WASHINGTON  1000   61     270/  4/  6 1011.5
MILWAUKEE LAKESH 1100   66      CALM  /  1   N/A
S MID LAKE BUOY  1050   65 63  220/  4/  4 1010.9F   0
KENOSHA   LAKESH 1100   65     260/  7/  7   N/A
$$

TC  - TEMPERATURE IN CELSIUS
VSB - VISIBILITY IN STATUTE MILES
WCI - WIND CHILL INDEX
HX  - HEAT INDEX




USA.gov is the U.S. government's official web portal to all federal, state and local government web resources and services.